User: anonymous
Location: Unspecified
(0.0000°N, 0.0000°E)
Time: 19:39:15
(UTC+02:00)
Language:

Ariane H10 - Orbit

View from above orbital plane
View from above orbital plane
View from above satellite
View from above satellite

Ground track
Ground track

The orbit data is extracted from the following two-line orbital elements,

1 21727U 91067B   14205.30662205 -.00000053  00000-0 -10576-3 0  2566
2 21727 004.4414 042.5213 7185476 014.0115 348.3427 02.31394439153395
Epoch (UTC): 24 July 2014 07:21:32
Eccentricity: 0.7185476
inclination: 4.4414°
perigee height: 417 km
apogee height: 35116 km
right ascension of ascending node: 42.5213°
argument of perigee: 14.0115°
revolutions per day: 2.31394439
mean anomaly at epoch: 348.3427°
orbit number at epoch: 15339

The dashed part of the orbit path shows where the satellite is in the earth's shadow,  

DLR